[[{"header":{"parameterUnit":"m.s-1","parameterCategory":1,"la1":30.2991,"la2":30.254,"lo1":-89.0895,"lo2":-89.0444,"dy":0.0017,"dx":0.0017,"nx":28,"ny":28,"refTime":"2024-07-09T09:00:00:Z","depth":0,"parameterNumber":2,"parameterNumberName":"U-component_of_WINDS"},"data":[0,0,0,0,0,0,0,0,0,0,0,0,0,0,0,0,0,0,0,0,0,0,0,0,0,0,0,0,0,0,0,0,0,0,0,0,0,0,0,0,0,0,0,0,0,0,0,0,0,0,0,0,0,0,0,0,0,0,1.8102,1.8103,0,1.8171,1.8171,1.8172,1.8121,1.8119,1.8117,1.8115,1.8187,1.8191,1.8195,0,0,0,0,0,0,0,0,0,0,0,0,0,1.7928,1.7931,1.8102,1.8103,1.8104,1.817,1.8171,1.8172,1.8122,1.8119,1.8116,1.8114,1.8186,1.819,1.8195,0,0,0,0,0,0,0,0,0,0,0,0,0,1.8001,1.7932,1.8102,1.8086,1.8086,1.817,1.8171,1.8173,1.8122,1.8119,1.8116,1.8112,1.8184,1.819,1.8196,1.83,0,0,1.8214,1.8217,0,0,0,0,0,0,0,0,1.7997,1.8007,1.8088,1.8087,1.8087,1.8134,1.8136,1.8215,1.8123,1.8108,1.8115,1.8111,1.8172,1.8179,1.8199,1.8303,1.8307,1.8215,1.8219,1.8221,1.8223,0,0,0,0,0,0,0,1.7992,1.8004,1.8129,1.8089,1.8088,1.8076,1.8083,1.8151,1.8158,1.8109,1.8106,1.8115,1.8171,1.8194,1.8201,1.8308,1.8215,1.822,1.8224,1.8226,1.8499,1.8503,0,0,0,0,0,0,1.7988,1.8,1.8127,1.8131,1.8032,1.8082,1.809,1.8122,1.8157,1.816,1.8117,1.8112,1.8185,1.8194,1.8203,1.8326,1.8221,1.8227,1.823,1.8496,1.85,1.8504,0,0,0,0,0,0,1.7984,1.8,1.8124,1.8065,1.8079,1.8089,1.8126,1.8125,1.8147,1.8163,1.8165,1.8139,1.8183,1.8195,1.8276,1.8328,1.8229,1.8235,1.8492,1.8497,1.8502,1.8575,0,0,0,0,0,0,1.7979,1.7999,1.8038,1.8066,1.8083,1.8196,1.8129,1.8129,1.8158,1.8151,1.8184,1.8186,1.8181,1.8267,1.8282,1.8335,1.824,1.8487,1.8494,1.8501,1.8568,1.8582,1.8594,0,0,0,0,0,1.7973,1.8057,1.804,1.8056,1.8132,1.8199,1.8209,1.8201,1.8162,1.8202,1.8212,1.8185,1.832,1.8276,1.8292,1.8348,1.8484,1.8492,1.85,1.8562,1.8579,1.8594,0,0,0,0,0,0,1.8036,1.806,1.8042,1.8137,1.8166,1.819,1.824,1.822,1.8261,1.8253,1.8242,1.825,1.8335,1.8349,1.83,1.845,1.8396,1.8408,1.8437,1.8454,1.8467,1.8462,1.8245,0,0,0,0,0,1.806,1.8112,1.813,1.8212,1.8227,1.8232,1.826,1.8251,1.8282,1.8294,1.831,1.8341,1.839,1.8423,1.8469,1.8569,1.8575,1.8615,1.8629,1.8639,1.865,1.8703,1.8721,1.8531,1.8531,1.8531,0,0,1.8112,1.8132,1.8165,1.8225,1.8247,1.83,1.8242,1.8302,1.8342,1.8303,1.838,1.8393,1.8427,1.8518,1.8559,1.8533,1.8703,1.865,1.8658,1.8663,1.8713,1.8731,1.8747,1.8537,1.8536,1.8535,0,0,1.8234,1.8254,1.8323,1.8346,1.8379,1.8381,1.8398,1.8425,1.8431,1.8509,1.848,1.8528,1.8613,1.8638,1.8662,1.8791,1.8767,1.8807,1.8876,1.8928,1.8943,1.8956,1.9002,1.9018,1.8817,1.8817,1.8817,0,1.8294,1.8373,1.8362,1.8423,1.845,1.8417,1.8487,1.851,1.8557,1.8576,1.8546,1.8651,1.8671,1.8767,1.8799,1.8819,1.8838,1.8803,1.8942,1.8955,1.8967,1.901,1.9027,1.8822,1.8821,1.8821,1.882,0,1.8445,1.8501,1.8553,1.8598,1.8631,1.8697,1.8695,1.873,1.8718,1.8723,1.8802,1.8825,1.8875,1.8897,1.8886,1.8991,1.8974,1.8943,1.8888,1.899,1.903,1.9047,1.8828,1.8826,1.8825,1.8824,0,0,1.8609,1.8646,1.8665,1.8685,1.8718,1.8761,1.8825,1.8872,1.8902,1.8935,1.8989,1.9061,1.9032,1.9059,1.9051,1.9096,1.9197,1.906,1.906,1.9084,1.9313,1.9336,1.9355,1.9181,1.9184,1.9187,1.931,0,1.8732,1.8842,1.8833,1.8938,1.8989,1.8957,1.9012,1.9039,1.9045,1.9089,1.9096,1.9148,1.9106,1.9122,1.9166,1.9175,1.9242,1.9166,1.923,1.9233,1.9223,1.9376,1.9401,1.9516,1.9326,1.9328,1.933,0,1.889,1.8928,1.9037,1.9061,1.9082,1.9132,1.9175,1.9217,1.9247,1.9248,1.9277,1.9261,1.9325,1.9269,1.9358,1.9306,1.9332,1.934,1.9345,1.935,1.9288,1.9386,1.9553,1.957,1.9355,1.9353,1.9351,0,1.8998,1.9076,1.9151,1.9169,1.9199,1.9235,1.9249,1.9275,1.9304,1.9341,1.936,1.9405,1.9429,1.9464,1.946,1.942,1.955,1.9494,1.9553,1.9553,1.9582,1.958,1.9755,1.9599,1.9599,1.9598,1.9598,0,1.9136,1.9204,1.9199,1.9246,1.9321,1.931,1.9384,1.9395,1.9418,1.9465,1.9441,1.9486,1.9479,1.9524,1.9522,1.9595,1.9606,1.9609,1.9608,1.9611,1.9611,1.9628,1.962,1.9603,1.9602,1.9601,1.96,0,1.9269,1.9269,1.9349,1.937,1.9377,1.9432,1.945,1.9494,1.9498,1.9558,1.9572,1.9578,1.963,1.963,1.969,1.9688,1.9777,1.9767,1.9767,1.9765,1.9823,1.9818,2.0015,2.004,1.9869,1.987,1.9872,0,1.9357,1.9409,1.9435,1.9465,1.9481,1.953,1.9559,1.955,1.9581,1.9617,1.9656,1.9706,1.9745,1.983,1.984,1.9885,1.9875,1.9941,1.9882,1.9884,1.9876,1.9873,1.9877,1.9953,1.9955,1.9957,1.9958,0,1.9514,1.951,1.9552,1.9594,1.9629,1.9662,1.9692,1.9718,1.9712,1.9749,1.9801,1.9831,1.9891,1.9941,1.9984,1.9999,1.9978,1.9976,1.9992,1.9996,1.9994,1.9995,1.9798,1.9972,1.997,1.9969,1.9969,1.9968,1.9627,1.967,1.9695,1.9743,1.9764,1.9793,1.9834,1.9842,1.9885,1.9933,1.9925,1.9983,2.001,2.0066,2.0085,2.0131,2.0108,2.0131,2.0137,2.0143,2.0149,1.9987,2.0139,2.0138,2.0138,2.0138,2.0137,0,1.9781,1.9795,1.9839,1.9881,1.9918,1.9893,1.9925,1.9958,2.0009,2.0036,2.0074,2.0134,2.0181,2.0195,2.024,2.0274,2.0266,2.0287,2.0284,2.0288,2.0167,2.0148,2.0293,2.0293,2.0293,2.0293,2.0293,2.0293,1.9866,1.9938,1.9937,2.002,2.0033,2.0089,2.0109,2.0135,2.0156,2.0224,2.0262,2.027,2.0291,2.0338,2.038,2.0383,2.0401,2.0426,2.0425,2.0312,2.0296,2.0281,2.0264,2.043,2.043,2.0541,2.0542,2.0543]},{"header":{"parameterUnit":"m.s-1","parameterCategory":1,"la1":30.2991,"la2":30.254,"lo1":-89.0895,"lo2":-89.0444,"dy":0.0017,"dx":0.0017,"nx":28,"ny":28,"refTime":"2024-07-09T09:00:00:Z","depth":0,"parameterNumber":3,"parameterNumberName":"V-component_of_WINDS"},"data":[0,0,0,0,0,0,0,0,0,0,0,0,0,0,0,0,0,0,0,0,0,0,0,0,0,0,0,0,0,0,0,0,0,0,0,0,0,0,0,0,0,0,0,0,0,0,0,0,0,0,0,0,0,0,0,0,0,0,-1.6089,-1.6091,0,-1.6219,-1.6221,-1.6222,-1.6252,-1.6251,-1.625,-1.6249,-1.6383,-1.6388,-1.6392,0,0,0,0,0,0,0,0,0,0,0,0,0,-1.5869,-1.5873,-1.6089,-1.6091,-1.6093,-1.6219,-1.6221,-1.6223,-1.6252,-1.6251,-1.625,-1.6249,-1.6382,-1.6387,-1.6392,0,0,0,0,0,0,0,0,0,0,0,0,0,-1.5978,-1.5874,-1.6089,-1.6123,-1.6127,-1.6219,-1.6221,-1.6223,-1.6252,-1.6251,-1.625,-1.6249,-1.638,-1.6387,-1.6393,-1.6461,0,0,-1.6413,-1.6416,0,0,0,0,0,0,0,0,-1.5972,-1.5986,-1.6116,-1.612,-1.6125,-1.6218,-1.6192,-1.6303,-1.6253,-1.6205,-1.6249,-1.6248,-1.633,-1.634,-1.6368,-1.6467,-1.6473,-1.6414,-1.6418,-1.6421,-1.6423,0,0,0,0,0,0,0,-1.5965,-1.5981,-1.6141,-1.6118,-1.6124,-1.6132,-1.6146,-1.6213,-1.6273,-1.6209,-1.6211,-1.6226,-1.6332,-1.6361,-1.6371,-1.6475,-1.6414,-1.642,-1.6424,-1.6426,-1.6638,-1.664,0,0,0,0,0,0,-1.5951,-1.5975,-1.6137,-1.6145,-1.6044,-1.6137,-1.6153,-1.619,-1.6273,-1.6284,-1.6227,-1.6227,-1.6351,-1.6363,-1.6376,-1.6461,-1.6421,-1.6427,-1.6431,-1.6636,-1.6638,-1.664,0,0,0,0,0,0,-1.5946,-1.5965,-1.6131,-1.606,-1.6082,-1.6142,-1.6184,-1.6193,-1.6222,-1.6286,-1.6297,-1.6246,-1.635,-1.6366,-1.644,-1.6466,-1.643,-1.6436,-1.6634,-1.6637,-1.6639,-1.6632,0,0,0,0,0,0,-1.594,-1.5963,-1.5989,-1.6061,-1.6086,-1.6193,-1.6185,-1.6196,-1.6233,-1.6235,-1.6307,-1.6318,-1.635,-1.643,-1.6446,-1.6475,-1.6441,-1.6632,-1.6635,-1.6638,-1.663,-1.6634,-1.6637,0,0,0,0,0,-1.5932,-1.5982,-1.599,-1.6009,-1.6119,-1.6194,-1.6208,-1.6244,-1.6235,-1.6262,-1.6304,-1.6315,-1.6461,-1.6437,-1.6456,-1.6487,-1.6631,-1.6635,-1.6638,-1.6629,-1.6633,-1.6637,0,0,0,0,0,0,-1.5912,-1.5992,-1.6002,-1.6077,-1.6128,-1.6199,-1.6234,-1.6248,-1.6304,-1.6302,-1.6345,-1.6361,-1.6432,-1.6467,-1.6439,-1.6557,-1.6546,-1.6553,-1.6532,-1.6537,-1.654,-1.653,-1.6447,0,0,0,0,0,-1.5916,-1.5969,-1.6037,-1.6096,-1.6122,-1.6173,-1.6207,-1.6231,-1.6286,-1.6308,-1.6355,-1.6408,-1.6466,-1.6503,-1.656,-1.6635,-1.6652,-1.6666,-1.667,-1.6672,-1.6678,-1.6721,-1.6729,-1.6652,-1.6652,-1.6652,0,0,-1.5925,-1.5976,-1.6007,-1.6094,-1.6136,-1.6191,-1.6191,-1.6249,-1.6291,-1.6317,-1.6389,-1.6425,-1.6488,-1.6563,-1.6598,-1.6594,-1.6703,-1.6677,-1.6678,-1.6683,-1.6726,-1.6733,-1.6739,-1.6655,-1.6654,-1.6654,0,0,-1.5971,-1.6014,-1.6069,-1.6112,-1.6176,-1.6211,-1.6224,-1.6293,-1.6318,-1.6391,-1.6411,-1.6462,-1.656,-1.6604,-1.664,-1.6703,-1.6716,-1.672,-1.6739,-1.678,-1.6786,-1.6792,-1.6815,-1.6822,-1.6726,-1.6726,-1.6726,0,-1.5974,-1.6058,-1.6095,-1.6152,-1.619,-1.6216,-1.6272,-1.6313,-1.6393,-1.6418,-1.6413,-1.6538,-1.6582,-1.6667,-1.6683,-1.671,-1.6727,-1.6712,-1.6782,-1.6788,-1.6794,-1.6816,-1.6825,-1.6726,-1.6726,-1.6726,-1.6726,0,-1.6059,-1.6117,-1.6153,-1.623,-1.6272,-1.6328,-1.6375,-1.6413,-1.6433,-1.6468,-1.6543,-1.6597,-1.6665,-1.6687,-1.6707,-1.6776,-1.6772,-1.6774,-1.6763,-1.6801,-1.6822,-1.6831,-1.6727,-1.6726,-1.6726,-1.6726,0,0,-1.6094,-1.6192,-1.6204,-1.624,-1.6314,-1.6359,-1.6418,-1.6484,-1.6517,-1.6571,-1.6621,-1.6705,-1.6707,-1.6747,-1.6773,-1.6809,-1.6857,-1.6807,-1.6809,-1.6815,-1.6936,-1.6934,-1.6944,-1.6866,-1.6868,-1.6869,-1.6931,0,-1.6149,-1.6253,-1.6289,-1.6375,-1.6429,-1.6455,-1.6506,-1.6557,-1.6592,-1.6643,-1.6682,-1.674,-1.6739,-1.6763,-1.6801,-1.6843,-1.6882,-1.6839,-1.6913,-1.6915,-1.6896,-1.6955,-1.6953,-1.7009,-1.694,-1.6941,-1.6942,0,-1.6226,-1.6282,-1.6373,-1.6441,-1.6465,-1.651,-1.6575,-1.6624,-1.6683,-1.6705,-1.675,-1.6774,-1.6836,-1.6822,-1.6909,-1.6879,-1.6912,-1.6937,-1.694,-1.6948,-1.6931,-1.6965,-1.7028,-1.7036,-1.6956,-1.6955,-1.6954,0,-1.6243,-1.6341,-1.6409,-1.6438,-1.6519,-1.655,-1.6585,-1.6643,-1.6681,-1.6738,-1.6764,-1.6827,-1.6861,-1.691,-1.695,-1.6936,-1.7034,-1.7023,-1.7055,-1.7054,-1.7074,-1.7072,-1.7143,-1.7095,-1.7095,-1.7095,-1.7094,0,-1.63,-1.6355,-1.6417,-1.6459,-1.6522,-1.6563,-1.6624,-1.6661,-1.6713,-1.6763,-1.6789,-1.6836,-1.6885,-1.6938,-1.697,-1.7038,-1.7053,-1.7074,-1.7081,-1.7071,-1.7069,-1.7093,-1.709,-1.7097,-1.7096,-1.7096,-1.7096,0,-1.6329,-1.6373,-1.6449,-1.6519,-1.6538,-1.6582,-1.6643,-1.6684,-1.672,-1.6783,-1.68,-1.6857,-1.6921,-1.6965,-1.7048,-1.7069,-1.7142,-1.7149,-1.7122,-1.7126,-1.7155,-1.7152,-1.7244,-1.7259,-1.7201,-1.7201,-1.7202,0,-1.6362,-1.6405,-1.6481,-1.6516,-1.6551,-1.6607,-1.6647,-1.6689,-1.6729,-1.68,-1.6834,-1.6899,-1.6954,-1.7055,-1.7104,-1.7167,-1.7176,-1.7204,-1.7186,-1.7175,-1.7177,-1.7174,-1.7179,-1.7207,-1.7207,-1.7208,-1.7208,0,-1.6417,-1.6437,-1.6492,-1.6555,-1.6601,-1.6653,-1.6706,-1.6733,-1.6785,-1.6829,-1.6894,-1.6937,-1.7021,-1.7086,-1.7154,-1.7191,-1.7209,-1.7213,-1.7224,-1.7214,-1.7197,-1.7207,-1.7129,-1.7211,-1.7211,-1.7211,-1.721,-1.721,-1.6449,-1.6489,-1.6548,-1.6609,-1.6653,-1.6702,-1.6745,-1.6786,-1.6842,-1.6913,-1.6936,-1.7004,-1.7063,-1.7156,-1.7194,-1.7249,-1.7247,-1.7262,-1.7266,-1.727,-1.7269,-1.7188,-1.7261,-1.7261,-1.7261,-1.7261,-1.7261,0,-1.6505,-1.6545,-1.6601,-1.6673,-1.6721,-1.6734,-1.6793,-1.6832,-1.6892,-1.6945,-1.6999,-1.7075,-1.7138,-1.7192,-1.7258,-1.7292,-1.7301,-1.7307,-1.7305,-1.7314,-1.7267,-1.7251,-1.7299,-1.7299,-1.7299,-1.7298,-1.7298,-1.7298,-1.654,-1.6608,-1.6635,-1.6726,-1.6766,-1.6832,-1.6865,-1.691,-1.6953,-1.7037,-1.709,-1.7125,-1.7179,-1.7249,-1.7308,-1.7323,-1.7346,-1.735,-1.7366,-1.7321,-1.7317,-1.7313,-1.7298,-1.7355,-1.7355,-1.7408,-1.7409,-1.7409]}]]